GEESAT-3 03 (61013 NORAD) Tracking and Keplerian Element Data

This shows tracking and keplerian element data for the satellite.

Feedback or suggestion? Click here.




ElementValue
Catalog61013
NameGEESAT-3 03
Epoch Orbit571
Epoch Day286.83600539
Epoch Year2024
RAAN64.7534
Inclination49.9933
Eccentricity0.0031267
Argument of Perigee103.4322
Mean Anonmoly257.0109
Mean Motion14.96177523
Decay Rate0.00017867
L11 61013U 24159C 24286.83600539 .00017867 00000+0 15709-2 0 9990
L22 61013 49.9933 64.7534 0031267 103.4322 257.0109 14.96177523 5715



Live tracking and technical data element details for GEESAT-3 03 (NORAD 61013). GEESAT-3 03 can be tracked NOW for your location showing map with azimuth and elevation plus other details from your city location.







IsCatalogInMostPopularTable: catalog: 61013, numindb: 6
Update: records affected: 1



GetName: 61013 GEESAT-3 03

Hit Count: updated at: Tue, 03 Dec 2024 03:29:44 GMT